Regional Weather Roundup
Issued by NWS Albany, NY

Home | Current Version | Previous Version | Text Only | Print | Product List | Glossary On
Versions: 1 2 3 4 5 6 7 8 9 10 11 12 13 14 15 16 17 18 19 20 21 22 23 24 25 26 27 28 29 30 31 32 33 34 35 36 37 38 39 40 41 42 43 44 45 46 47 48 49 50
000
ASUS41 KALY 282210
RWRALY

NEW YORK STATE HOURLY WEATHER ROUNDUP
NATIONAL WEATHER SERVICE ALBANY NY
600 PM EDT THU MAY 28 2015

NOTE: "FAIR" INDICATES FEW OR NO CLOUDS BELOW 12,000 FEET WITH NO
SIGNIFICANT WEATHER AND/OR NO OBSTRUCTIONS TO VISIBILITY.

NYZ032-033-038>043-046>054-057>066-NYZ062>081-282300-
EAST


CITY           SKY/WX    TMP DP  RH WIND       PRES   REMARKS
ALBANY         PTSUNNY   72  53  51 NW13G25   30.18R
GLENS FALLS    PTSUNNY   72  54  53 W8        30.16S
POUGHKEEPSIE   MOSUNNY   84  57  39 NW7       30.10R
NEWBURGH       MOSUNNY   82  63  51 NW14G20   30.14R
MONTGOMERY     MOSUNNY   83  59  44 NW12G21   30.12R
WHITE PLAINS   PTSUNNY   78  67  68 S7        30.12R
ISLIP          CLOUDY    70  63  78 SW9       30.14R
NEW YORK CITY  CLOUDY    81  64  56 S8        30.11R
CENTRAL PARK   PTSUNNY   82  67  60 CALM      30.14R
$$

NYZ005>009-017-018-044>046-055-056-282300-
CENTRAL


CITY           SKY/WX    TMP DP  RH WIND       PRES   REMARKS
FULTON         SUNNY     72  54  53 NW6       30.24S
SYRACUSE       MOSUNNY   73  55  53 W10       30.23S
ROME           MOSUNNY   71  56  58 NW12      30.23S
ELMIRA         MOSUNNY   75  55  49 NE12      30.23S
BINGHAMTON     MOSUNNY   68  53  58 NW9G18    30.25S
MONTICELLO     SUNNY     72  54  53 NW9G20    30.22R
$$

NYZ026>034-041>043-282300-
NORTH


CITY           SKY/WX    TMP DP  RH WIND       PRES   REMARKS
WATERTOWN      SUNNY     66  54  65 SW10      30.22F
FORT DRUM      NOT AVBL
MASSENA        MOSUNNY   70  54  56 NW8       30.20R
SARANAC LAKE   CLOUDY    59  56  89 VRB5      30.21R
PLATTSBURGH    CLOUDY    68  56  65 W15G28    30.14R
$$

NYZ001>004-010>016-019>021-282300-
WEST


CITY           SKY/WX    TMP DP  RH WIND       PRES   REMARKS
NIAGARA FALLS  MOSUNNY   76  52  43 VRB7      30.22F
BUFFALO        MOSUNNY   76  53  44 SW7       30.23F
DUNKIRK        SUNNY     74  54  49 NE5       30.24F
JAMESTOWN      SUNNY     72  48  43 CALM      30.27F
WELLSVILLE     SUNNY     74  52  46 VRB5      30.29S
ROCHESTER      MOSUNNY   76  53  44 NW6       30.23F
PENN YAN       MOSUNNY   75  52  44 MISG      30.25F
$$

             KEY
       WCI = WIND CHILL INDEX
       VSB = VISIBILITY
       HX  = HEAT INDEX
$$


USA.gov is the U.S. government's official web portal to all federal, state and local government web resources and services.